sat.trackr.live / text

‹ back to catalog

TELSTAR 19V

NORAD 43562 · 2018-059A

PAYLOAD ACTIVE UNKNOWN

§ Identity

Operator
Country
CA
Launch date
2018-07-22
Launch site
AFETR
Launch vehicle
Mass (kg)
RCS (m²)

Purposes: comms

External: N2YO · Heavens-Above · Gunter

§ Orbital elements

Epoch: 2026-05-25T04:10:09.901344Z

Period
1,436.11 min
Inclination
0.0356°
Eccentricity
0.0002344
Mean motion
1.00271210 rev/d
Perigee alt
35,776.9 km
Apogee alt
35,796.6 km
Semi-major
42,164.9 km
B*
0.0000e+0
RAAN
154.2827°
Arg perigee
307.4528°
Mean anomaly
140.5663°
Rev number
2,891

§ Raw data

TELSTAR 19V1 43562U 18059A   26145.17372571 -.00000282  00000+0  00000+0 0  99952 43562   0.0356 154.2827 0002344 307.4528 140.5663  1.00271210 28916

JSON: /api/v1/satellites/43562 · /tle

For live sub-satellite position, see the globe view (requires WebGL).

§ Visibility from observer

Set your observer location to see the next 7 days of passes ≥ 10°. The values pass through the URL so the page stays shareable.

No JS? Fill the form by hand. The geolocation button needs JavaScript.